Time,TemperatureF,DewpointF,PressureIn,WindDirection,WindDirectionDegrees,WindSpeedMPH,WindSpeedGustMPH,Humidity,HourlyPrecipIn,Conditions,Clouds,dailyrainin,SolarRadiationWatts/m^2,SoftwareType,DateUTC
2015-02-01 00:01:00,32.5,31.5,30.17,SW,230,7.0,7.0,96,0.00,CLR,,0.00,0.0,WeatherDisplay:10.37,2015-02-01 05:01:00,
2015-02-01 00:06:00,32.4,31.4,30.18,SW,222,10.4,10.4,96,0.00,CLR,,0.00,0.0,WeatherDisplay:10.37,2015-02-01 05:06:00,
2015-02-01 00:11:00,32.4,31.4,30.18,SW,215,8.1,8.1,96,0.00,CLR,,0.00,0.0,WeatherDisplay:10.37,2015-02-01 05:11:00,
2015-02-01 00:16:00,32.4,31.4,30.17,SW,230,6.9,6.9,96,0.00,CLR,,0.00,0.0,WeatherDisplay:10.37,2015-02-01 05:16:00,
2015-02-01 00:21:00,32.4,31.4,30.17,SW,221,6.9,6.9,96,0.00,CLR,,0.00,0.0,WeatherDisplay:10.37,2015-02-01 05:21:00,
2015-02-01 00:26:00,32.4,31.4,30.17,SW,230,6.9,6.9,96,0.00,CLR,,0.00,0.0,WeatherDisplay:10.37,2015-02-01 05:26:00,
2015-02-01 00:31:00,32.4,31.4,30.17,SW,223,7.0,7.0,96,0.00,CLR,,0.00,0.0,WeatherDisplay:10.37,2015-02-01 05:31:00,
2015-02-01 00:36:00,32.4,31.4,30.17,SSW,213,6.0,6.0,96,0.00,CLR,,0.00,0.0,WeatherDisplay:10.37,2015-02-01 05:36:00,
2015-02-01 00:41:00,32.4,31.4,30.16,SW,221,5.8,5.8,96,0.00,CLR,,0.00,0.0,WeatherDisplay:10.37,2015-02-01 05:41:00,
2015-02-01 00:46:00,32.4,31.4,30.17,SSW,198,6.9,6.9,96,0.00,CLR,,0.00,0.0,WeatherDisplay:10.37,2015-02-01 05:46:00,
2015-02-01 00:51:00,32.5,31.5,30.17,SW,215,9.2,9.2,96,0.00,CLR,,0.00,0.0,WeatherDisplay:10.37,2015-02-01 05:51:00,
2015-02-01 00:56:00,32.5,31.5,30.16,SW,218,8.1,8.1,96,0.00,CLR,,0.00,0.0,WeatherDisplay:10.37,2015-02-01 05:56:00,
2015-02-01 01:01:00,32.5,31.5,30.16,SSW,202,5.8,5.8,96,0.00,CLR,,0.00,0.0,WeatherDisplay:10.37,2015-02-01 06:01:00,
2015-02-01 01:06:00,32.5,31.5,30.16,SSW,205,5.8,5.8,96,0.00,CLR,,0.00,0.0,WeatherDisplay:10.37,2015-02-01 06:06:00,
2015-02-01 01:11:00,32.5,31.5,30.16,SSW,210,5.0,5.0,96,0.00,CLR,,0.00,0.0,WeatherDisplay:10.37,2015-02-01 06:11:00,
2015-02-01 01:16:00,32.5,31.5,30.15,SSW,199,3.5,3.5,96,0.00,CLR,,0.00,0.0,WeatherDisplay:10.37,2015-02-01 06:16:00,
2015-02-01 01:21:00,32.5,31.5,30.15,South,188,5.8,5.8,96,0.00,CLR,,0.00,0.0,WeatherDisplay:10.37,2015-02-01 06:21:00,
2015-02-01 01:26:00,32.6,31.6,30.15,SSW,209,5.8,5.8,96,0.00,CLR,,0.00,0.0,WeatherDisplay:10.37,2015-02-01 06:26:00,
2015-02-01 01:31:00,32.6,31.6,30.14,SSW,199,3.5,3.5,96,0.00,CLR,,0.00,0.0,WeatherDisplay:10.37,2015-02-01 06:31:00,
2015-02-01 01:36:00,32.5,31.5,30.14,SSW,199,3.5,3.5,96,0.00,CLR,,0.00,0.0,WeatherDisplay:10.37,2015-02-01 06:36:00,
2015-02-01 01:41:00,32.6,31.6,30.14,SSW,199,2.3,2.3,96,0.00,CLR,,0.00,0.0,WeatherDisplay:10.37,2015-02-01 06:41:00,
2015-02-01 01:46:00,32.6,31.6,30.13,SSW,199,2.3,2.3,96,0.00,CLR,,0.00,0.0,WeatherDisplay:10.37,2015-02-01 06:46:00,
2015-02-01 01:51:00,32.6,31.6,30.13,SSW,199,0.0,0.0,96,0.00,CLR,,0.00,0.0,WeatherDisplay:10.37,2015-02-01 06:51:00,
2015-02-01 01:56:00,32.6,31.6,30.13,SSW,199,3.5,3.5,96,0.00,CLR,,0.00,0.0,WeatherDisplay:10.37,2015-02-01 06:56:00,
2015-02-01 02:01:00,32.6,31.6,30.13,SSW,199,3.5,0.0,96,0.00,CLR,,0.00,0.0,WeatherDisplay:10.37,2015-02-01 07:01:00,
2015-02-01 02:06:00,32.6,31.6,30.13,SSW,199,1.2,1.2,96,0.00,CLR,,0.00,0.0,WeatherDisplay:10.37,2015-02-01 07:06:00,
2015-02-01 02:11:00,32.6,31.6,30.13,SSW,199,2.3,2.3,96,0.00,CLR,,0.00,0.0,WeatherDisplay:10.37,2015-02-01 07:11:00,
2015-02-01 02:16:00,32.6,31.8,30.12,SSW,199,3.5,3.5,97,0.00,CLR,,0.00,0.0,WeatherDisplay:10.37,2015-02-01 07:16:00,
2015-02-01 02:21:00,32.6,31.8,30.12,SSW,199,3.5,3.5,97,0.00,CLR,,0.00,0.0,WeatherDisplay:10.37,2015-02-01 07:21:00,
2015-02-01 02:26:00,32.6,31.8,30.12,SSW,199,3.5,3.5,97,0.01,RA,,0.01,0.0,WeatherDisplay:10.37,2015-02-01 07:26:00,
2015-02-01 02:31:00,32.6,31.8,30.12,South,189,4.0,4.0,97,0.01,RA,,0.01,0.0,WeatherDisplay:10.37,2015-02-01 07:31:00,
2015-02-01 02:36:00,32.6,31.8,30.12,South,186,4.6,4.6,97,0.01,,,0.01,0.0,WeatherDisplay:10.37,2015-02-01 07:36:00,
2015-02-01 02:41:00,32.6,31.8,30.12,South,190,4.6,4.6,97,0.01,CLR,,0.01,0.0,WeatherDisplay:10.37,2015-02-01 07:41:00,
2015-02-01 02:46:00,32.6,31.8,30.12,South,186,5.0,5.0,97,0.01,CLR,,0.01,0.0,WeatherDisplay:10.37,2015-02-01 07:46:00,
2015-02-01 02:51:00,32.6,31.8,30.12,South,188,5.0,5.0,97,0.02,RA,,0.02,0.0,WeatherDisplay:10.37,2015-02-01 07:51:00,
2015-02-01 02:56:00,32.6,31.8,30.11,South,181,6.0,6.0,97,0.02,RA,,0.02,0.0,WeatherDisplay:10.37,2015-02-01 07:56:00,
2015-02-01 03:01:00,32.6,31.8,30.11,South,175,3.5,3.5,97,0.02,CLR,,0.02,0.0,WeatherDisplay:10.37,2015-02-01 08:01:00,
2015-02-01 03:06:00,32.6,31.8,30.11,South,184,4.6,4.6,97,0.02,CLR,,0.02,0.0,WeatherDisplay:10.37,2015-02-01 08:06:00,
2015-02-01 03:11:00,32.5,31.7,30.11,South,179,3.5,3.5,97,0.02,CLR,,0.02,0.0,WeatherDisplay:10.37,2015-02-01 08:11:00,
2015-02-01 03:16:00,32.5,31.7,30.10,South,179,0.0,0.0,97,0.02,CLR,,0.02,0.0,WeatherDisplay:10.37,2015-02-01 08:16:00,
2015-02-01 03:21:00,32.5,31.7,30.10,South,179,0.0,0.0,97,0.02,CLR,,0.02,0.0,WeatherDisplay:10.37,2015-02-01 08:21:00,
2015-02-01 03:26:00,32.6,31.8,30.09,South,179,0.0,0.0,97,0.01,CLR,,0.02,0.0,WeatherDisplay:10.37,2015-02-01 08:26:00,
2015-02-01 03:31:00,32.5,31.7,30.09,South,179,2.3,2.3,97,0.02,RA,,0.03,0.0,WeatherDisplay:10.37,2015-02-01 08:31:00,
2015-02-01 03:36:00,32.5,31.7,30.08,South,179,1.2,0.0,97,0.02,RA,,0.03,0.0,WeatherDisplay:10.37,2015-02-01 08:36:00,
2015-02-01 03:41:00,32.5,31.7,30.08,South,179,1.2,0.0,97,0.02,,,0.03,0.0,WeatherDisplay:10.37,2015-02-01 08:41:00,
2015-02-01 03:46:00,32.5,31.7,30.08,South,179,2.3,2.3,97,0.02,CLR,,0.04,0.0,WeatherDisplay:10.37,2015-02-01 08:46:00,
2015-02-01 03:51:00,32.5,31.7,30.08,South,179,2.3,2.3,97,0.02,RA,,0.04,0.0,WeatherDisplay:10.37,2015-02-01 08:51:00,
2015-02-01 03:56:00,32.6,31.8,30.08,South,179,2.3,2.3,97,0.02,RA,,0.04,0.0,WeatherDisplay:10.37,2015-02-01 08:56:00,
2015-02-01 04:01:00,32.5,31.7,30.08,South,179,2.3,2.3,97,0.02,CLR,,0.04,0.0,WeatherDisplay:10.37,2015-02-01 09:01:00,
2015-02-01 04:06:00,32.6,31.8,30.08,South,178,2.3,2.3,97,0.02,CLR,,0.04,0.0,WeatherDisplay:10.37,2015-02-01 09:06:00,
2015-02-01 04:11:00,32.6,31.8,30.07,SE,133,3.5,3.5,97,0.02,CLR,,0.04,0.0,WeatherDisplay:10.37,2015-02-01 09:11:00,
2015-02-01 04:16:00,32.6,31.8,30.07,SE,133,3.0,3.0,97,0.02,CLR,,0.04,0.0,WeatherDisplay:10.37,2015-02-01 09:16:00,
2015-02-01 04:21:00,32.6,31.8,30.07,SE,140,3.5,3.5,97,0.02,CLR,,0.04,0.0,WeatherDisplay:10.37,2015-02-01 09:21:00,
2015-02-01 04:26:00,32.6,31.8,30.07,SE,140,1.2,1.2,97,0.02,CLR,,0.04,0.0,WeatherDisplay:10.37,2015-02-01 09:26:00,
2015-02-01 04:31:00,32.6,31.8,30.07,SE,140,1.2,1.2,97,0.02,RA,,0.05,0.0,WeatherDisplay:10.37,2015-02-01 09:31:00,
2015-02-01 04:36:00,32.6,31.8,30.06,SE,140,2.3,2.3,97,0.02,RA,,0.05,0.0,WeatherDisplay:10.37,2015-02-01 09:36:00,
2015-02-01 04:41:00,32.6,31.8,30.07,SSE,150,4.0,4.0,97,0.02,RA,,0.05,0.0,WeatherDisplay:10.37,2015-02-01 09:41:00,
2015-02-01 04:46:00,32.6,31.8,30.07,SSE,150,1.2,1.2,97,0.02,CLR,,0.05,0.0,WeatherDisplay:10.37,2015-02-01 09:46:00,
2015-02-01 04:51:00,32.7,31.9,30.07,SSE,150,2.3,2.3,97,0.01,CLR,,0.05,0.0,WeatherDisplay:10.37,2015-02-01 09:51:00,
2015-02-01 04:56:00,32.6,31.8,30.07,SSE,150,2.3,2.3,97,0.01,CLR,,0.05,0.0,WeatherDisplay:10.37,2015-02-01 09:56:00,
2015-02-01 05:01:00,32.7,31.9,30.08,South,179,5.8,5.8,97,0.02,RA,,0.06,0.0,WeatherDisplay:10.37,2015-02-01 10:01:00,
2015-02-01 05:06:00,32.7,31.9,30.08,South,175,5.8,5.8,97,0.02,RA,,0.06,0.0,WeatherDisplay:10.37,2015-02-01 10:06:00,
2015-02-01 05:11:00,32.7,31.9,30.08,South,182,7.0,7.0,97,0.02,,,0.06,0.0,WeatherDisplay:10.37,2015-02-01 10:11:00,
2015-02-01 05:16:00,32.7,31.9,30.08,South,183,4.6,4.6,97,0.02,CLR,,0.06,0.0,WeatherDisplay:10.37,2015-02-01 10:16:00,
2015-02-01 05:21:00,32.6,31.8,30.07,South,177,4.6,4.6,97,0.02,CLR,,0.06,0.0,WeatherDisplay:10.37,2015-02-01 10:21:00,
2015-02-01 05:26:00,32.6,31.8,30.07,South,175,3.5,3.5,97,0.02,CLR,,0.06,0.0,WeatherDisplay:10.37,2015-02-01 10:26:00,
2015-02-01 05:31:00,32.6,31.8,30.07,SSE,160,6.9,6.9,97,0.02,CLR,,0.06,0.0,WeatherDisplay:10.37,2015-02-01 10:31:00,
2015-02-01 05:36:00,32.6,31.8,30.06,SSE,157,5.8,5.8,97,0.02,RA,,0.07,0.0,WeatherDisplay:10.37,2015-02-01 10:36:00,
2015-02-01 05:41:00,32.6,31.8,30.06,SSE,157,3.5,3.5,97,0.02,RA,,0.07,0.0,WeatherDisplay:10.37,2015-02-01 10:41:00,
2015-02-01 05:46:00,32.6,31.8,30.06,SSE,157,2.3,2.3,97,0.02,CLR,,0.07,0.0,WeatherDisplay:10.37,2015-02-01 10:46:00,
2015-02-01 05:51:00,32.6,31.8,30.05,SSE,157,2.3,2.3,97,0.02,CLR,,0.07,0.0,WeatherDisplay:10.37,2015-02-01 10:51:00,
2015-02-01 05:56:00,32.6,31.8,30.05,SSE,157,0.0,0.0,97,0.02,CLR,,0.07,0.0,WeatherDisplay:10.37,2015-02-01 10:56:00,
2015-02-01 06:01:00,32.6,31.8,30.05,SSE,157,0.0,0.4,97,0.01,CLR,,0.07,0.0,WeatherDisplay:10.37,2015-02-01 11:01:00,
2015-02-01 06:06:00,32.5,31.7,30.04,SSE,157,2.3,2.3,97,0.01,CLR,,0.07,0.0,WeatherDisplay:10.37,2015-02-01 11:06:00,
2015-02-01 06:11:00,32.5,31.7,30.04,SSE,157,2.3,2.3,97,0.01,CLR,,0.07,0.0,WeatherDisplay:10.37,2015-02-01 11:11:00,
2015-02-01 06:16:00,32.6,31.8,30.04,SSE,157,1.2,1.2,97,0.02,RA,,0.08,0.0,WeatherDisplay:10.37,2015-02-01 11:16:00,
2015-02-01 06:21:00,32.5,31.7,30.03,ESE,105,3.5,3.5,97,0.02,RA,,0.08,0.0,WeatherDisplay:10.37,2015-02-01 11:21:00,
2015-02-01 06:26:00,32.5,31.7,30.03,ESE,105,2.3,2.3,97,0.02,,,0.08,0.0,WeatherDisplay:10.37,2015-02-01 11:26:00,
2015-02-01 06:31:00,32.5,31.7,30.03,ESE,105,2.3,2.3,97,0.02,CLR,,0.08,0.0,WeatherDisplay:10.37,2015-02-01 11:31:00,
2015-02-01 06:36:00,32.5,31.7,30.03,ESE,105,1.2,1.4,97,0.01,CLR,,0.08,0.0,WeatherDisplay:10.37,2015-02-01 11:36:00,
2015-02-01 06:41:00,32.5,31.7,30.03,ESE,109,3.5,3.7,97,0.01,CLR,,0.08,0.0,WeatherDisplay:10.37,2015-02-01 11:41:00,
2015-02-01 06:46:00,32.6,31.8,30.03,ESE,113,3.5,3.8,97,0.02,RA,,0.09,0.0,WeatherDisplay:10.37,2015-02-01 11:46:00,
2015-02-01 06:51:00,32.6,31.8,30.02,East,96,3.5,3.5,97,0.03,RA,,0.10,0.0,WeatherDisplay:10.37,2015-02-01 11:51:00,
2015-02-01 06:56:00,32.6,31.8,30.01,ESE,117,3.5,3.5,97,0.03,RA,,0.10,0.0,WeatherDisplay:10.37,2015-02-01 11:56:00,
2015-02-01 07:01:00,32.5,31.7,30.00,ENE,68,3.5,3.5,97,0.03,,,0.10,0.0,WeatherDisplay:10.37,2015-02-01 12:01:00,
2015-02-01 07:06:00,32.6,31.8,30.00,ENE,66,4.6,4.6,97,0.03,CLR,,0.10,0.0,WeatherDisplay:10.37,2015-02-01 12:06:00,
2015-02-01 07:11:00,32.6,31.8,29.99,ENE,60,5.8,5.8,97,0.03,CLR,,0.10,0.0,WeatherDisplay:10.37,2015-02-01 12:11:00,
2015-02-01 07:16:00,32.6,31.8,29.98,NE,44,3.5,4.0,97,0.03,RA,,0.11,0.0,WeatherDisplay:10.37,2015-02-01 12:16:00,
2015-02-01 07:21:00,32.6,31.8,29.98,NE,40,5.8,5.8,97,0.03,RA,,0.12,0.0,WeatherDisplay:10.37,2015-02-01 12:21:00,
2015-02-01 07:26:00,32.6,31.8,29.98,ENE,75,6.9,6.9,97,0.04,RA,,0.12,0.0,WeatherDisplay:10.37,2015-02-01 12:26:00,
2015-02-01 07:31:00,32.6,31.8,29.97,ENE,67,6.9,6.9,97,0.04,RA,,0.12,0.0,WeatherDisplay:10.37,2015-02-01 12:31:00,
2015-02-01 07:36:00,32.7,31.9,29.97,ENE,69,4.6,4.6,97,0.04,CLR,,0.12,0.0,WeatherDisplay:10.37,2015-02-01 12:36:00,
2015-02-01 07:41:00,32.7,31.9,29.97,ENE,60,4.6,5.1,97,0.04,CLR,,0.12,0.0,WeatherDisplay:10.37,2015-02-01 12:41:00,
2015-02-01 07:46:00,32.7,31.9,29.97,East,81,8.1,8.1,97,0.04,RA,,0.13,0.0,WeatherDisplay:10.37,2015-02-01 12:46:00,
2015-02-01 07:51:00,32.7,31.9,29.97,East,92,6.9,6.9,97,0.03,RA,,0.13,0.0,WeatherDisplay:10.37,2015-02-01 12:51:00,
2015-02-01 07:56:00,32.7,31.9,29.97,ENE,78,4.6,4.6,97,0.03,CLR,,0.13,0.0,WeatherDisplay:10.37,2015-02-01 12:56:00,
2015-02-01 08:01:00,32.8,32.0,29.97,ENE,69,6.9,6.9,97,0.03,CLR,,0.13,0.0,WeatherDisplay:10.37,2015-02-01 13:01:00,
2015-02-01 08:06:00,32.8,32.0,29.97,East,83,8.1,8.1,97,0.03,CLR,,0.13,0.0,WeatherDisplay:10.37,2015-02-01 13:06:00,
2015-02-01 08:11:00,32.9,32.1,29.96,ENE,68,6.9,6.9,97,0.04,RA,,0.14,0.0,WeatherDisplay:10.37,2015-02-01 13:11:00,
2015-02-01 08:16:00,32.9,32.1,29.95,ENE,71,6.9,6.9,97,0.03,RA,,0.14,7.0,WeatherDisplay:10.37,2015-02-01 13:16:00,
2015-02-01 08:21:00,32.9,32.1,29.95,ENE,69,4.6,4.6,97,0.03,BKN,,0.14,12.0,WeatherDisplay:10.37,2015-02-01 13:21:00,
2015-02-01 08:26:00,33.0,32.2,29.95,East,90,4.0,4.0,97,0.02,BKN,,0.14,14.0,WeatherDisplay:10.37,2015-02-01 13:26:00,
2015-02-01 08:31:00,33.0,32.2,29.94,ENE,66,9.2,9.2,97,0.02,BKN,,0.14,19.0,WeatherDisplay:10.37,2015-02-01 13:31:00,
2015-02-01 08:36:00,33.0,32.2,29.94,East,94,4.6,4.6,97,0.02,BKN,,0.14,26.0,WeatherDisplay:10.37,2015-02-01 13:36:00,
2015-02-01 08:41:00,33.2,32.4,29.94,East,90,6.9,7.1,97,0.02,BKN,,0.14,26.0,WeatherDisplay:10.37,2015-02-01 13:41:00,
2015-02-01 08:46:00,33.2,32.4,29.94,East,97,6.9,6.9,97,0.01,BKN,,0.14,26.0,WeatherDisplay:10.37,2015-02-01 13:46:00,
2015-02-01 08:51:00,33.3,32.5,29.94,ENE,69,5.8,5.8,97,0.02,RA,,0.15,30.0,WeatherDisplay:10.37,2015-02-01 13:51:00,
2015-02-01 08:56:00,33.3,32.5,29.93,ENE,78,6.9,6.9,97,0.02,RA,,0.15,49.0,WeatherDisplay:10.37,2015-02-01 13:56:00,
2015-02-01 09:01:00,33.4,32.6,29.93,East,83,9.2,9.2,97,0.02,BKN,,0.16,44.0,WeatherDisplay:10.37,2015-02-01 14:01:00,
2015-02-01 09:06:00,33.5,32.7,29.93,ESE,104,8.1,8.1,97,0.03,RA,,0.16,44.0,WeatherDisplay:10.37,2015-02-01 14:06:00,
2015-02-01 09:11:00,33.5,32.7,29.92,East,89,10.0,10.0,97,0.02,RA,,0.16,49.0,WeatherDisplay:10.37,2015-02-01 14:11:00,
2015-02-01 09:16:00,33.6,32.8,29.92,East,99,10.4,10.4,97,0.02,SCT,,0.16,58.0,WeatherDisplay:10.37,2015-02-01 14:16:00,
2015-02-01 09:21:00,33.6,32.8,29.91,East,90,8.1,8.1,97,0.02,FEW,,0.16,77.0,WeatherDisplay:10.37,2015-02-01 14:21:00,
2015-02-01 09:26:00,33.7,32.9,29.91,East,98,8.1,8.1,97,0.03,RA,,0.17,79.0,WeatherDisplay:10.37,2015-02-01 14:26:00,
2015-02-01 09:31:00,33.7,32.9,29.91,ESE,102,11.5,11.5,97,0.03,RA,,0.17,69.0,WeatherDisplay:10.37,2015-02-01 14:31:00,
2015-02-01 09:36:00,33.8,32.8,29.90,ENE,76,10.4,10.4,96,0.04,RA,,0.18,63.0,WeatherDisplay:10.37,2015-02-01 14:36:00,
2015-02-01 09:41:00,33.8,32.8,29.89,ESE,112,10.4,10.4,96,0.04,RA,,0.18,65.0,WeatherDisplay:10.37,2015-02-01 14:41:00,
2015-02-01 09:46:00,34.0,33.0,29.89,ESE,104,13.8,13.8,96,0.04,FEW,,0.18,70.0,WeatherDisplay:10.37,2015-02-01 14:46:00,
2015-02-01 09:51:00,34.1,32.8,29.89,East,85,11.5,11.5,95,0.03,CLR,,0.19,76.0,WeatherDisplay:10.37,2015-02-01 14:51:00,
2015-02-01 09:56:00,34.1,32.8,29.89,East,98,9.2,9.2,95,0.04,RA,,0.19,67.0,WeatherDisplay:10.37,2015-02-01 14:56:00,
2015-02-01 10:01:00,34.1,32.8,29.89,ENE,77,9.2,9.2,95,0.05,RA,,0.20,63.0,WeatherDisplay:10.37,2015-02-01 15:01:00,
2015-02-01 10:06:00,34.2,32.7,29.88,NE,50,8.1,8.1,94,0.04,RA,,0.20,65.0,WeatherDisplay:10.37,2015-02-01 15:06:00,
2015-02-01 10:11:00,34.3,32.8,29.88,SE,124,7.0,7.0,94,0.04,SCT,,0.20,65.0,WeatherDisplay:10.37,2015-02-01 15:11:00,
2015-02-01 10:16:00,34.4,32.9,29.88,SE,127,5.8,5.8,94,0.04,CLR,,0.21,79.0,WeatherDisplay:10.37,2015-02-01 15:16:00,
2015-02-01 10:21:00,34.4,32.9,29.87,East,96,9.2,9.2,94,0.05,RA,,0.21,76.0,WeatherDisplay:10.37,2015-02-01 15:21:00,
2015-02-01 10:26:00,34.5,33.0,29.88,South,181,9.2,9.2,94,0.05,RA,,0.22,67.0,WeatherDisplay:10.37,2015-02-01 15:26:00,
2015-02-01 10:31:00,34.5,33.0,29.87,ESE,107,5.8,5.8,94,0.05,RA,,0.22,56.0,WeatherDisplay:10.37,2015-02-01 15:31:00,
2015-02-01 10:36:00,34.4,32.9,29.87,East,98,9.2,9.2,94,0.04,SCT,,0.22,47.0,WeatherDisplay:10.37,2015-02-01 15:36:00,
2015-02-01 10:41:00,34.4,32.9,29.86,East,86,8.1,8.1,94,0.04,SCT,,0.22,49.0,WeatherDisplay:10.37,2015-02-01 15:41:00,
2015-02-01 10:46:00,34.5,33.0,29.86,East,99,10.4,10.4,94,0.05,RA,,0.23,49.0,WeatherDisplay:10.37,2015-02-01 15:46:00,
2015-02-01 10:51:00,34.5,33.0,29.86,ESE,115,11.5,11.5,94,0.05,RA,,0.24,51.0,WeatherDisplay:10.37,2015-02-01 15:51:00,
2015-02-01 10:56:00,34.4,32.9,29.86,ESE,110,11.5,11.5,94,0.05,RA,,0.24,46.0,WeatherDisplay:10.37,2015-02-01 15:56:00,
2015-02-01 11:01:00,34.2,32.7,29.86,ESE,113,7.0,7.0,94,0.04,RA,,0.24,46.0,WeatherDisplay:10.37,2015-02-01 16:01:00,
2015-02-01 11:06:00,34.2,32.7,29.86,ESE,111,8.1,8.1,94,0.05,RA,,0.25,49.0,WeatherDisplay:10.37,2015-02-01 16:06:00,
2015-02-01 11:11:00,34.1,32.6,29.86,ESE,115,6.9,6.9,94,0.06,RA,,0.26,42.0,WeatherDisplay:10.37,2015-02-01 16:11:00,
2015-02-01 11:16:00,33.9,32.4,29.86,ESE,111,6.9,6.9,94,0.06,RA,,0.26,44.0,WeatherDisplay:10.37,2015-02-01 16:16:00,
2015-02-01 11:21:00,33.8,32.3,29.85,East,86,6.0,6.0,94,0.05,BKN,,0.26,42.0,WeatherDisplay:10.37,2015-02-01 16:21:00,
2015-02-01 11:26:00,33.6,32.1,29.85,ESE,115,8.1,8.1,94,0.05,RA,,0.27,39.0,WeatherDisplay:10.37,2015-02-01 16:26:00,
2015-02-01 11:31:00,33.4,32.1,29.85,East,101,5.8,5.8,95,0.06,RA,,0.28,39.0,WeatherDisplay:10.37,2015-02-01 16:31:00,
2015-02-01 11:36:00,33.1,31.8,29.84,ESE,105,3.5,3.5,95,0.06,RA,,0.28,42.0,WeatherDisplay:10.37,2015-02-01 16:36:00,
2015-02-01 11:41:00,33.0,31.7,29.83,ESE,114,5.8,5.8,95,0.06,BKN,,0.28,39.0,WeatherDisplay:10.37,2015-02-01 16:41:00,
2015-02-01 11:46:00,32.9,31.6,29.82,East,93,3.5,3.5,95,0.05,BKN,,0.28,39.0,WeatherDisplay:10.37,2015-02-01 16:46:00,
2015-02-01 11:51:00,32.9,31.6,29.82,East,90,6.9,6.9,95,0.05,BKN,,0.28,28.0,WeatherDisplay:10.37,2015-02-01 16:51:00,
2015-02-01 11:56:00,32.9,31.9,29.82,East,88,6.9,6.9,96,0.04,BKN,,0.28,26.0,WeatherDisplay:10.37,2015-02-01 16:56:00,
2015-02-01 12:02:00,32.9,31.9,29.82,East,83,5.8,5.8,96,0.04,BKN,,0.28,21.0,WeatherDisplay:10.37,2015-02-01 17:02:00,
2015-02-01 12:07:00,32.9,31.9,29.82,East,81,6.9,6.9,96,0.03,BKN,,0.28,21.0,WeatherDisplay:10.37,2015-02-01 17:07:00,
2015-02-01 12:12:00,32.9,31.9,29.82,East,99,3.5,3.5,96,0.02,BKN,,0.29,19.0,WeatherDisplay:10.37,2015-02-01 17:12:00,
2015-02-01 12:17:00,32.9,31.9,29.80,ENE,74,4.0,4.0,96,0.03,RA,,0.29,33.0,WeatherDisplay:10.37,2015-02-01 17:17:00,
2015-02-01 12:22:00,32.9,31.9,29.79,East,101,6.9,6.9,96,0.03,RA,,0.29,37.0,WeatherDisplay:10.37,2015-02-01 17:22:00,
2015-02-01 12:27:00,32.9,31.9,29.78,ENE,73,6.9,6.9,96,0.02,BKN,,0.29,40.0,WeatherDisplay:10.37,2015-02-01 17:27:00,
2015-02-01 12:32:00,32.9,31.9,29.78,East,87,3.5,3.5,96,0.03,RA,,0.30,47.0,WeatherDisplay:10.37,2015-02-01 17:32:00,
2015-02-01 12:37:00,32.8,31.8,29.78,East,99,3.5,3.5,96,0.02,RA,,0.30,40.0,WeatherDisplay:10.37,2015-02-01 17:37:00,
2015-02-01 12:42:00,32.9,31.9,29.77,East,96,3.5,3.5,96,0.02,SCT,,0.30,49.0,WeatherDisplay:10.37,2015-02-01 17:42:00,
2015-02-01 12:47:00,32.9,31.9,29.77,ESE,107,4.0,4.0,96,0.02,SCT,,0.30,54.0,WeatherDisplay:10.37,2015-02-01 17:47:00,
2015-02-01 12:50:00,32.9,31.9,29.77,ESE,105,5.8,5.8,96,0.02,SCT,,0.30,58.0,WeatherDisplay:10.37,2015-02-01 17:50:00,
2015-02-01 12:55:00,32.9,31.9,29.76,East,82,4.0,4.0,96,0.02,SCT,,0.30,60.0,WeatherDisplay:10.37,2015-02-01 17:55:00,